星链-11580 (STARLINK-11580)

导读

STARLINK-11580是美国SpaceX公司星链星座的成员卫星,于2025年2月15日成功发射。该卫星运行在近地轨道,属于星链星座扩容卫星,旨在为全球提供高速低延迟宽带互联网服务。星链系统通过大规模低轨卫星组网,重点覆盖缺乏传统通信基础设施偏远地区,支持手机直连等新业务,具备高速传输与低时延特性,推动全球互联覆盖进一步完善。

基本信息
目录编号:
63011
目录名称:
STARLINK-11580
国际标识:
2025-032G
轨道中心:
EARTH
卫星名称:
星链-11580
卫星全名:
星链-11580 (STARLINK-11580)
卫星状态:
在轨 (已飞行484 天)
发射日期:
2025-02-15 UTC
国别 :
美国 (US)
星等 :
--
轨道信息
数据来源 国际轨道数据
星历时间: 2026-06-14T12:37:43+0800
12小时前
查看轨道信息
半长轴: 6733.838km
偏心率: 0.0002106
轨道倾角: 43.001°
近地点辐角 13.487°
升交点赤经 333.439°
平近点角 346.605°
近地点: 354.282km
远地点: 357.12km
周期: 91.654分钟
每日圈数: 15.711179
详细信息
固有亮度:
5
最大亮度:
2.5
卫星平台:
Starlink V1.0
覆盖范围:
全球
运营商:
太空探索技术公司
运营商所在国:
美国
制造商(研发单位):
太空探索技术公司
制造商所在国:
美国
使用方式:
暂无
卫星简介
Starlink 计划是 SpaceX 推出的全球卫星互联网项目,通过发射低轨道卫星,为全球尤其是偏远地区提供高速、低延迟的互联网服务。自 2019 年起,Starlink 已部署数千颗卫星,旨在缩小全球数字鸿沟,推动互联网普及。该项目还为军事、航空等行业提供通信支持,带来广泛经济效益。
2D轨道图
3D轨道图
轨道高度分析图
轨道倾角分析图
轨道综合分析图
查看轨道综合分析图